Location: Staunton
(38.1490°N, 79.0720°W)
Time: 01:29:23
(UTC-05:00)

ISS - Pass Details

Date: 18 January 2018
Orbit: 402 x 407 km, 51.6° (Epoch: 21 January)

Event Time Altitude Azimuth Distance (km) Brightness Sun altitude
Exits shadow 06:13:25 12° 222° (SW) 1,335 -1.5 -15.0°
Drops below altitude 10° 06:14:22 10° 205° (SSW) 1,453 -1.1 -14.8°
Sets 06:17:23 0° 175° (S) 2,308 0.3 -14.3°
